H1 CPF 2 NER 2023 2 20 9 051 01 glonass135 H2 1600801 9135 41330 2023 2 20 0 0 0 2023 2 23 23 45 0 900 1 1 0 0 0 1 H9 10 0 59995 0.00000 0 23570514.333 9067962.342 3481322.788 10 0 59995 900.00000 0 23858543.694 8974726.753 253243.139 10 0 59995 1800.00000 0 23762186.731 8732588.956 -2979762.029 10 0 59995 2700.00000 0 23266895.217 8396685.910 -6154757.116 10 0 59995 3600.00000 0 22371615.686 8024614.612 -9209925.509 10 0 59995 4500.00000 0 21088954.443 7673771.851 -12085783.323 10 0 59995 5400.00000 0 19444783.291 7398711.334 -14726346.888 10 0 59995 6300.00000 0 17477302.110 7248631.458 -17080230.278 10 0 59995 7200.00000 0 15235597.522 7265101.285 -19101650.676 10 0 59995 8100.00000 0 12777758.273 7480121.912 -20751321.617 10 0 59995 9000.00000 0 10168626.528 7914605.900 -21997216.622 10 0 59995 9900.00000 0 7477279.486 8577339.401 -22815188.600 10 0 59995 10800.00000 0 4774346.706 9464470.975 -23189433.476 10 0 59995 11700.00000 0 2129275.074 10559548.666 -23112789.711 10 0 59995 12600.00000 0 -392344.872 11834103.640 -22586868.643 10 0 59995 13500.00000 0 -2731280.520 13248755.713 -21622013.903 10 0 59995 14400.00000 0 -4836883.498 14754794.162 -20237091.343 10 0 59995 15300.00000 0 -6668949.307 16296167.319 -18459114.153 10 0 59995 16200.00000 0 -8199134.406 17811797.401 -16322710.843 10 0 59995 17100.00000 0 -9411873.497 19238123.478 -13869446.734 10 0 59995 18000.00000 0 -10304760.682 20511765.960 -11147012.316 10 0 59995 18900.00000 0 -10888380.551 21572200.962 -8208294.359 10 0 59995 19800.00000 0 -11185598.259 22364332.551 -5110347.870 10 0 59995 20700.00000 0 -11230340.179 22840855.129 -1913288.947 10 0 59995 21600.00000 0 -11065917.906 22964307.105 1320869.964 10 0 59995 22500.00000 0 -10742967.393 22708729.897 4529419.836 10 0 59995 23400.00000 0 -10317090.925 22060862.903 7650166.597 10 0 59995 24300.00000 0 -9846301.814 21020824.440 10622631.156 10 0 59995 25200.00000 0 -9388379.804 19602250.115 13389214.981 10 0 59995 26100.00000 0 -8998248.578 17831882.638 15896309.073 10 0 59995 27000.00000 0 -8725485.661 15748629.777 18095325.514 10 0 59995 27900.00000 0 -8612069.294 13402129.101 19943632.306 10 0 59995 28800.00000 0 -8690456.848 10850878.396 21405374.183 10 0 59995 29700.00000 0 -8982075.505 8160008.437 22452164.214 10 0 59995 30600.00000 0 -9496288.832 5398789.354 23063633.406 10 0 59995 31500.00000 0 -10229883.163 2637972.804 23227828.031 10 0 59995 32400.00000 0 -11167096.254 -52921.153 22941447.023 10 0 59995 33300.00000 0 -12280188.242 -2608261.189 22209914.587 10 0 59995 34200.00000 0 -13530532.442 -4968796.651 21047285.965 10 0 59995 35100.00000 0 -14870181.841 -7083881.701 19475987.272 10 0 59995 36000.00000 0 -16243847.152 -8913339.789 17526393.265 10 0 59995 36900.00000 0 -17591204.766 -10428891.145 15236249.996 10 0 59995 37800.00000 0 -18849438.648 -11615083.865 12649952.296 10 0 59995 38700.00000 0 -19955909.928 -12469689.758 9817689.059 10 0 59995 39600.00000 0 -20850841.895 -13003548.304 6794472.165 10 0 59995 40500.00000 0 -21479906.832 -13239865.363 3639067.522 10 0 59995 41400.00000 0 -21796604.701 -13212996.403 412849.013 10 0 59995 42300.00000 0 -21764332.068 -12966765.984 -2821401.855 10 0 59995 43200.00000 0 -21358052.623 -12552395.286 -6000726.415 10 0 59995 44100.00000 0 -20565497.264 -12026126.241 -9063224.434 10 0 59995 45000.00000 0 -19387841.770 -11446644.005 -11949269.502 10 0 59995 45900.00000 0 -17839832.383 -10872408.159 -14602679.375 10 0 59995 46800.00000 0 -15949353.112 -10359006.891 -16971817.480 10 0 59995 47700.00000 0 -13756452.488 -9956647.302 -19010603.290 10 0 59995 48600.00000 0 -11311870.375 -9707888.905 -20679411.479 10 0 59995 49500.00000 0 -8675126.562 -9645716.790 -21945842.275 10 0 59995 50400.00000 0 -5912251.230 -9792036.138 -22785348.215 10 0 59995 51300.00000 0 -3093252.196 -10156651.670 -23181705.631 10 0 59995 52200.00000 0 -289424.548 -10736774.842 -23127322.394 10 0 59995 53100.00000 0 2429385.408 -11517079.183 -22623376.664 10 0 59995 54000.00000 0 4997448.468 -12470300.972 -21679784.748 10 0 59995 54900.00000 0 7355642.895 -13558359.535 -20314999.347 10 0 59995 55800.00000 0 9453664.222 -14733949.607 -18555642.694 10 0 59995 56700.00000 0 11251863.928 -15942538.494 -16435982.119 10 0 59995 57600.00000 0 12722641.965 -17124683.850 -13997258.528 10 0 59995 58500.00000 0 13851336.869 -18218574.503 -11286881.028 10 0 59995 59400.00000 0 14636578.161 -19162687.507 -8357503.466 10 0 59995 60300.00000 0 15090088.224 -19898449.775 -5266000.844 10 0 59995 61200.00000 0 15235943.759 -20372792.464 -2072365.590 10 0 59995 62100.00000 0 15109329.477 -20540490.895 1161454.872 10 0 59995 63000.00000 0 14754837.781 -20366191.787 4372756.742 10 0 59995 63900.00000 0 14224387.038 -19826042.718 7499291.408 10 0 59995 64800.00000 0 13574846.792 -18908855.435 10480466.645 10 0 59995 65700.00000 0 12865470.286 -17616754.065 13258514.510 10 0 59995 66600.00000 0 12155242.467 -15965280.798 15779603.685 10 0 59995 67500.00000 0 11500254.927 -13982954.055 17994875.364 10 0 59995 68400.00000 0 10951217.837 -11710296.832 19861383.333 10 0 59995 69300.00000 0 10551213.105 -9198374.697 21342920.786 10 0 59995 70200.00000 0 10333782.781 -6506903.052 22410718.603 10 0 59995 71100.00000 0 10321432.807 -3702000.899 23044002.181 10 0 59995 72000.00000 0 10524614.968 -853682.877 23230396.412 10 0 59995 72900.00000 0 10941230.168 1966807.922 22966171.044 10 0 59995 73800.00000 0 11556674.577 4689717.186 22256321.430 10 0 59995 74700.00000 0 12344427.758 7249435.210 21114482.470 10 0 59995 75600.00000 0 13267159.317 9586982.097 19562676.537 10 0 59995 76500.00000 0 14278308.943 11652219.837 17630899.070 10 0 59995 77400.00000 0 15324074.692 13405699.605 15356548.669 10 0 59995 78300.00000 0 16345726.917 14820067.465 12783711.465 10 0 59995 79200.00000 0 17282151.111 15880969.760 9962312.594 10 0 59995 80100.00000 0 18072512.692 16587420.116 6947150.450 10 0 59995 81000.00000 0 18658931.168 16951612.690 3796832.130 10 0 59995 81900.00000 0 18989049.960 16998189.444 572630.691 10 0 59995 82800.00000 0 19018392.128 16762992.548 -2662713.051 10 0 59995 83700.00000 0 18712401.135 16291355.119 -5846220.074 10 0 59995 84600.00000 0 18048078.897 15636003.278 -8915909.053 10 0 59995 85500.00000 0 17015150.376 14854659.196 -11812013.341 10 0 59996 0.00000 0 15616704.261 14007447.730 -14478153.891 10 0 59996 900.00000 0 13869280.796 13154217.110 -16862445.655 10 0 59996 1800.00000 0 11802404.105 12351889.205 -18918511.539 10 0 59996 2700.00000 0 9457575.635 11651950.807 -20606388.501 10 0 59996 3600.00000 0 6886772.364 11098193.619 -21893304.396 10 0 59996 4500.00000 0 4150511.849 10724798.213 -22754312.123 10 0 59996 5400.00000 0 1315565.048 10554842.767 -23172768.987 10 0 59996 6300.00000 0 -1547587.754 10599299.055 -23140652.626 10 0 59996 7200.00000 0 -4367452.015 10856557.380 -22658708.131 10 0 59996 8100.00000 0 -7074253.210 11312499.654 -21736424.290 10 0 59996 9000.00000 0 -9602597.132 11941116.737 -20391840.095 10 0 59996 9900.00000 0 -11893946.410 12705643.245 -18651185.877 10 0 59996 10800.00000 0 -13898811.307 13560161.362 -16548366.457 10 0 59996 11700.00000 0 -15578564.976 14451605.616 -14124296.651 10 0 59996 12600.00000 0 -16906809.027 15322083.771 -11426102.216 10 0 59996 13500.00000 0 -17870234.120 16111415.889 -8506201.875 10 0 59996 14400.00000 0 -18468941.378 16759784.493 -5421288.264 10 0 59996 15300.00000 0 -18716212.860 17210384.176 -2231227.678 10 0 59996 16200.00000 0 -18637742.356 17411959.103 1002100.016 10 0 59996 17100.00000 0 -18270360.201 17321121.639 4215998.808 10 0 59996 18000.00000 0 -17660306.852 16904354.532 7348168.122 10 0 59996 18900.00000 0 -16861128.656 16139612.431 10337905.177 10 0 59996 19800.00000 0 -15931284.817 15017455.312 13127275.159 10 0 59996 20700.00000 0 -14931566.388 13541665.871 15662226.916 10 0 59996 21600.00000 0 -13922435.671 11729324.512 17893633.140 10 0 59996 22500.00000 0 -12961397.463 9610337.899 19778235.650 10 0 59996 23400.00000 0 -12100512.040 7226439.714 21279478.162 10 0 59996 24300.00000 0 -11384153.693 4629703.869 22368211.199 10 0 59996 25200.00000 0 -10847108.338 1880630.504 23023256.109 10 0 59996 26100.00000 0 -10513089.638 -954117.381 23231817.647 10 0 59996 27000.00000 0 -10393735.756 -3804234.404 22989737.257 10 0 59996 27900.00000 0 -10488129.042 -6598447.482 22301581.917 10 0 59996 28800.00000 0 -10782859.296 -9267235.174 21180566.232 10 0 59996 29700.00000 0 -11252628.755 -11745480.035 19648308.400 10 0 59996 30600.00000 0 -11861374.367 -13974944.698 17734423.637 10 0 59996 31500.00000 0 -12563861.162 -15906469.186 15475961.695 10 0 59996 32400.00000 0 -13307680.597 -17501798.117 12916698.163 10 0 59996 33300.00000 0 -14035570.322 -18734961.488 10106292.147 10 0 59996 34200.00000 0 -14687957.890 -19593151.059 7099325.971 10 0 59996 35100.00000 0 -15205620.837 -20077055.305 3954245.038 10 0 59996 36000.00000 0 -15532350.134 -20200638.652 732218.470 10 0 59996 36900.00000 0 -15617503.410 -19990374.272 -2504056.878 10 0 59996 37800.00000 0 -15418338.551 -19483962.987 -5691584.986 10 0 59996 38700.00000 0 -14902027.459 -18728592.853 -8768306.865 10 0 59996 39600.00000 0 -14047263.208 -17778813.740 -11674319.050 10 0 59996 40500.00000 0 -12845391.099 -16694117.641 -14353049.496 10 0 59996 41400.00000 0 -11301014.497 -15536328.052 -16752366.910 10 0 59996 42300.00000 0 -9432048.762 -14366909.790 -18825601.066 10 0 59996 43200.00000 0 -7269220.175 -13244313.744 -20532453.780 10 0 59996 44100.00000 0 -4855030.246 -12221469.204 -21839782.660 10 0 59996 45000.00000 0 -2242228.492 -11343529.868 -22722242.569 10 0 59996 45900.00000 0 508142.705 -10645968.353 -23162772.827 10 0 59996 46800.00000 0 3329049.673 -10153098.993 -23152921.325 10 0 59996 47700.00000 0 6150019.670 -9877090.332 -22693000.046 10 0 59996 48600.00000 0 8899837.754 -9817507.794 -21792069.724 10 0 59996 49500.00000 0 11509276.528 -9961404.650 -20467754.669 10 0 59996 50400.00000 0 13913745.814 -10283956.239 -18745891.913 10 0 59996 51300.00000 0 16055752.870 -10749609.663 -16660021.962 10 0 59996 52200.00000 0 17887071.838 -11313699.552 -14250731.313 10 0 59996 53100.00000 0 19370533.251 -11924461.054 -11564859.728 10 0 59996 54000.00000 0 20481360.399 -12525354.636 -8654587.754 10 0 59996 54900.00000 0 21207998.259 -13057604.276 -5576422.254 10 0 59996 55800.00000 0 21552401.825 -13462841.786 -2390099.707 10 0 59996 56700.00000 0 21529773.300 -13685745.655 842571.407 10 0 59996 57600.00000 0 21167760.498 -13676563.089 4058906.733 10 0 59996 58500.00000 0 20505151.284 -13393408.967 7196557.451 10 0 59996 59400.00000 0 19590119.757 -12804244.831 10194713.687 10 0 59996 60300.00000 0 18478098.439 -11888454.491 12995276.851 10 0 59996 61200.00000 0 17229366.097 -10637949.718 15543978.597 10 0 59996 62100.00000 0 15906452.441 -9057759.121 17791425.287 10 0 59996 63000.00000 0 14571468.228 -7166074.690 19694048.448 10 0 59996 63900.00000 0 13283472.252 -4993753.022 21214943.520 10 0 59996 64800.00000 0 12095984.835 -2583290.641 22324581.422 10 0 59996 65700.00000 0 11054751.285 12685.495 23001379.768 10 0 59996 66600.00000 0 10195848.331 2733351.281 23232123.085 10 0 59996 67500.00000 0 9544212.333 5511964.044 23012224.036 10 0 59996 68400.00000 0 9112650.677 8278393.626 22345820.380 10 0 59996 69300.00000 0 8901377.813 10961802.533 21245705.223 10 0 59996 70200.00000 0 8898095.711 13493365.241 19733091.070 10 0 59996 71100.00000 0 9078615.904 15808914.741 17837211.089 10 0 59996 72000.00000 0 9407997.661 17851406.861 15594764.090 10 0 59996 72900.00000 0 9842155.077 19573099.976 13049212.758 10 0 59996 73800.00000 0 10329865.908 20937359.051 10249947.601 10 0 59996 74700.00000 0 10815097.734 21920008.307 7251332.062 10 0 59996 75600.00000 0 11239553.126 22510175.375 4111646.893 10 0 59996 76500.00000 0 11545325.799 22710591.053 891954.235 10 0 59996 77400.00000 0 11677554.335 22537331.617 -2345096.083 10 0 59996 78300.00000 0 11586959.972 22019014.530 -5536494.062 10 0 59996 79200.00000 0 11232159.646 21195481.720 -8620105.886 10 0 59996 80100.00000 0 10581654.638 20116026.360 -11535893.866 10 0 59996 81000.00000 0 9615409.107 18837238.744 -14227095.007 10 0 59996 81900.00000 0 8325950.283 17420563.097 -16641334.191 10 0 59996 82800.00000 0 6718942.562 15929669.398 -18731649.416 10 0 59996 83700.00000 0 4813210.234 14427751.906 -20457408.637 10 0 59996 84600.00000 0 2640207.068 12974868.927 -21785100.216 10 0 59996 85500.00000 0 242954.419 11625436.171 -22688981.730 10 0 59997 0.00000 0 -2325507.790 10425979.261 -23151574.978 10 0 59997 900.00000 0 -5004094.166 9413238.782 -23163998.412 10 0 59997 1800.00000 0 -7725985.386 8612708.285 -22726130.755 10 0 59997 2700.00000 0 -10421186.653 8037663.338 -21846604.256 10 0 59997 3600.00000 0 -13019223.461 7688722.679 -20542627.715 10 0 59997 4500.00000 0 -15451864.258 7553957.745 -18839643.656 10 0 59997 5400.00000 0 -17655757.063 7609544.579 -16770826.681 10 0 59997 6300.00000 0 -19574871.129 7820929.298 -14376433.069 10 0 59997 7200.00000 0 -21162642.806 8144456.815 -11703014.439 10 0 59997 8100.00000 0 -22383737.271 8529393.207 -8802510.847 10 0 59997 9000.00000 0 -23215353.791 8920255.700 -5731240.960 10 0 59997 9900.00000 0 -23648021.209 9259351.444 -2548808.967 10 0 59997 10800.00000 0 -23685851.666 9489417.610 683050.549 10 0 59997 11700.00000 0 -23346243.109 9556251.232 3901667.384 10 0 59997 12600.00000 0 -22659044.162 9411217.725 7044646.988 10 0 59997 13500.00000 0 -21665217.216 9013532.252 10051074.875 10 0 59997 14400.00000 0 -20415056.469 8332217.699 12862691.131 10 0 59997 15300.00000 0 -18966035.937 7347656.641 15425012.586 10 0 59997 16200.00000 0 -17380377.708 6052671.633 17688381.512 10 0 59997 17100.00000 0 -15722441.999 4453087.831 19608921.207 10 0 59997 18000.00000 0 -14056047.795 2567753.403 21149380.666 10 0 59997 18900.00000 0 -12441835.416 428015.576 22279852.757 10 0 59997 19800.00000 0 -10934780.464 -1923327.383 22978352.613 10 0 59997 20700.00000 0 -9581962.223 -4433556.373 23231245.475 10 0 59997 21600.00000 0 -8420679.025 -7041982.085 23033515.832 10 0 59997 22500.00000 0 -7476988.760 -9682236.900 22388872.508 10 0 59997 23400.00000 0 -6764735.246 -12284814.597 21309687.069 10 0 59997 24300.00000 0 -6285101.100 -14779753.875 19816765.937 10 0 59997 25200.00000 0 -6026706.010 -17099355.381 17938959.489 10 0 59997 26100.00000 0 -5966246.595 -19180819.915 15712614.508 10 0 59997 27000.00000 0 -6069651.355 -20968698.233 13180879.338 10 0 59997 27900.00000 0 -6293702.471 -22417050.234 10392874.113 10 0 59997 28800.00000 0 -6588056.276 -23491222.831 7402741.350 10 0 59997 29700.00000 0 -6897577.020 -24169171.423 4268594.836 10 0 59997 30600.00000 0 -7164884.889 -24442268.881 1051387.183 10 0 59997 31500.00000 0 -7333009.622 -24315567.312 -2186281.559 10 0 59997 32400.00000 0 -7348036.244 -23807501.178 -5381390.298 10 0 59997 33300.00000 0 -7161629.457 -22949044.115 -8471733.433 10 0 59997 34200.00000 0 -6733328.203 -21782355.124 -11397142.201 10 0 59997 35100.00000 0 -6032511.643 -20358971.654 -14100665.845 10 0 59997 36000.00000 0 -5039951.748 -18737626.388 -16529688.568 10 0 59997 36900.00000 0 -3748885.548 -16981780.607 -18636959.590 10 0 59997 37800.00000 0 -2165560.574 -15156978.840 -20381515.771 10 0 59997 38700.00000 0 -309229.571 -13328136.770 -21729478.637 10 0 59997 39600.00000 0 1788406.005 -11556876.897 -22654710.462 10 0 59997 40500.00000 0 4084280.875 -9899023.892 -23139317.093 10 0 59997 41400.00000 0 6525534.160 -8402364.444 -23173988.411 10 0 59997 42300.00000 0 9051495.607 -7104764.773 -22758170.566 10 0 59997 43200.00000 0 11596007.153 -6032723.619 -21900067.435 10 0 59997 44100.00000 0 14089983.289 -5200419.878 -20616472.010 10 0 59997 45000.00000 0 16464103.812 -4609293.183 -18932431.572 10 0 59997 45900.00000 0 18651527.239 -4248173.241 -16880753.662 10 0 59997 46800.00000 0 20590512.364 -4093950.758 -14501362.715 10 0 59997 47700.00000 0 22226839.365 -4112760.111 -11840520.094 10 0 59997 48600.00000 0 23515930.273 -4261622.565 -8949922.757 10 0 59997 49500.00000 0 24424581.190 -4490479.663 -5885698.103 10 0 59997 50400.00000 0 24932234.845 -4744530.115 -2707314.567 10 0 59997 51300.00000 0 25031741.276 -4966770.996 523570.900 10 0 59997 52200.00000 0 24729575.785 -5100635.565 3744306.132 10 0 59997 53100.00000 0 24045505.925 -5092616.156 6892454.705 10 0 59997 54000.00000 0 23011722.241 -4894761.345 9907001.230 10 0 59997 54900.00000 0 21671469.714 -4466941.983 12729527.877 10 0 59997 55800.00000 0 20077237.548 -3778790.517 15305339.705 10 0 59997 56700.00000 0 18288583.104 -2811231.675 17584517.520 10 0 59997 57600.00000 0 16369680.740 -1557539.729 19522878.568 10 0 59997 58500.00000 0 14386697.519 -23877.174 21082827.144 10 0 59997 59400.00000 0 12405104.638 1770708.799 22234079.380 10 0 59997 60300.00000 0 10487035.897 3794833.357 22954248.827 10 0 59997 61200.00000 0 8688802.463 6005843.415 23229281.917 10 0 59997 62100.00000 0 7058666.645 8351366.672 23053735.042 10 0 59997 63000.00000 0 5634966.713 10771277.776 22430887.739 10 0 59997 63900.00000 0 4444670.409 13200001.646 21372689.268 10 0 59997 64800.00000 0 3502417.132 15569059.841 19899538.800 10 0 59997 65700.00000 0 2810088.692 17809755.371 18039902.368 10 0 59997 66600.00000 0 2356926.601 19855885.076 15829772.808 10 0 59997 67500.00000 0 2120191.138 21646366.972 13311981.881 10 0 59997 68400.00000 0 2066334.624 23127672.922 10535376.816 10 0 59997 69300.00000 0 2152639.581 24255964.404 7553876.387 10 0 59997 70200.00000 0 2329252.590 24998841.429 4425424.392 10 0 59997 71100.00000 0 2541527.528 25336630.182 1210860.731 10 0 59997 72000.00000 0 2732578.309 25263154.285 -2027267.598 10 0 59997 72900.00000 0 2845932.071 24785956.611 -5225931.704 10 0 59997 73800.00000 0 2828169.085 23925961.680 -8322857.380 10 0 59997 74700.00000 0 2631436.064 22716592.623 -11257747.752 10 0 59997 75600.00000 0 2215724.822 21202379.941 -13973466.996 10 0 59997 76500.00000 0 1550818.235 19437121.037 -16417161.004 10 0 59997 77400.00000 0 617819.808 17481668.595 -18541292.241 10 0 59997 78300.00000 0 -589799.040 15401441.534 -20304568.137 10 0 59997 79200.00000 0 -2065679.120 13263763.748 -21672744.717 10 0 59997 80100.00000 0 -3790603.721 11135142.879 -22619289.958 10 0 59997 81000.00000 0 -5733078.228 9078603.383 -23125894.402 10 0 59997 81900.00000 0 -7850435.198 7151185.432 -23182819.763 10 0 59997 82800.00000 0 -10090418.835 5401713.760 -22789079.497 10 0 59997 83700.00000 0 -12393182.817 3868928.782 -21952448.637 10 0 59997 84600.00000 0 -14693618.194 2580056.750 -20689303.444 10 0 59997 85500.00000 0 -16923914.387 1549877.119 -19024294.614 10 0 59998 0.00000 0 -19016246.541 780324.332 -16989861.075 10 0 59998 900.00000 0 -20905478.589 260638.374 -14625592.968 10 0 59998 1800.00000 0 -22531766.883 -31943.149 -11977459.214 10 0 59998 2700.00000 0 -23842960.009 -130983.642 -9096911.143 10 0 59998 3600.00000 0 -24796692.313 -79187.846 -6039882.240 10 0 59998 4500.00000 0 -25362085.466 73644.508 -2865702.476 10 0 59998 5400.00000 0 -25520987.417 272964.554 364051.571 10 0 59998 6300.00000 0 -25268697.614 462020.029 3586748.516 10 0 59998 7200.00000 0 -24614148.781 584493.016 6739912.796 10 0 59998 8100.00000 0 -23579538.228 587118.148 9762430.803 10 0 59998 9000.00000 0 -22199424.530 422170.725 12595729.405 10 0 59998 9900.00000 0 -20519327.600 49719.749 15184904.345 10 0 59998 10800.00000 0 -18593890.659 -560449.108 17479777.224 10 0 59998 11700.00000 0 -16484680.629 -1427321.804 19435861.228 10 0 59998 12600.00000 0 -14257718.209 -2557619.498 21015217.605 10 0 59998 13500.00000 0 -11980839.909 -3945281.681 22187187.040 10 0 59998 14400.00000 0 -9721000.962 -5571491.664 22928982.415 10 0 59998 15300.00000 0 -7541630.458 -7405244.823 23226131.891 10 0 59998 16200.00000 0 -5500147.712 -9404437.564 23072763.956 10 0 59998 17100.00000 0 -3645742.268 -11517433.496 22471728.750 10 0 59998 18000.00000 0 -2017509.207 -13685043.385 21434552.836 10 0 59998 18900.00000 0 -643016.794 -15842838.167 19981227.481 10 0 59998 19800.00000 0 462634.143 -17923700.115 18139833.482 10 0 59998 20700.00000 0 1297220.022 -19860506.900 15946008.579 10 0 59998 21600.00000 0 1871256.390 -21588837.142 13442266.546 10 0 59998 22500.00000 0 2207317.708 -23049584.559 10677180.042 10 0 59998 23400.00000 0 2338843.628 -24191371.006 7704442.209 10 0 59998 24300.00000 0 2308482.227 -24972656.560 4581824.734 10 0 59998 25200.00000 0 2166040.474 -25363457.064 1370052.473 10 0 59998 26100.00000 0 1966129.181 -25346595.874 -1868383.108 10 0 59998 27000.00000 0 1765603.064 -24918435.936 -5070447.932 10 0 59998 27900.00000 0 1620905.532 -24089060.488 -8173801.924 10 0 59998 28800.00000 0 1585432.063 -22881894.208 -11118022.938 10 0 59998 29700.00000 0 1707025.398 -21332780.282 -13845792.962 10 0 59998 30600.00000 0 2025710.155 -19488552.284 -16304022.432 10 0 59998 31500.00000 0 2571764.131 -17405161.233 -18444889.816 10 0 59998 32400.00000 0 3364209.040 -15145437.002 -20226775.676 10 0 59998 33300.00000 0 4409785.421 -12776578.588 -21615072.809 10 0 59998 34200.00000 0 5702455.653 -10367478.931 -22582856.811 10 0 59998 35100.00000 0 7223456.513 -7985996.582 -23111404.434 10 0 59998 36000.00000 0 8941899.414 -5696288.239 -23190550.309 10 0 59998 36900.00000 0 10815893.279 -3556313.265 -22818875.868 10 0 59998 37800.00000 0 12794143.132 -1615613.541 -22003727.568 10 0 59998 38700.00000 0 14817957.575 86539.889 -20761064.841 10 0 59998 39600.00000 0 16823581.228 1522557.522 -19115141.319 10 0 59998 40500.00000 0 18744754.809 2677442.371 -17098026.064 10 0 59998 41400.00000 0 20515396.027 3549165.125 -14748974.380 10 0 59998 42300.00000 0 22072289.500 4148489.829 -12113660.711 10 0 59998 43200.00000 0 23357673.577 4498259.389 -9243288.590 10 0 59998 44100.00000 0 24321616.307 4632172.749 -6193594.982 10 0 59998 45000.00000 0 24924081.550 4593106.744 -3023768.393 10 0 59998 45900.00000 0 25136599.260 4431054.559 204698.279 10 0 59998 46800.00000 0 24943470.465 4200768.682 3429197.928 10 0 59998 47700.00000 0 24342456.939 3959208.382 6587219.412 10 0 59998 48600.00000 0 23344927.021 3762899.794 9617554.407 10 0 59998 49500.00000 0 21975451.730 3665320.149 12461477.803 10 0 59998 50400.00000 0 20270868.111 3714416.479 15063879.112 10 0 59998 51300.00000 0 18278848.819 3950363.362 17374323.502 10 0 59998 52200.00000 0 16056037.262 4403654.160 19348022.535 10 0 59998 53100.00000 0 13665825.485 5093606.238 20946696.504 10 0 59998 54000.00000 0 11175866.528 6027343.404 22139312.379 10 0 59998 54900.00000 0 8655423.763 7199299.049 22902683.731 10 0 59998 55800.00000 0 6172666.357 8591261.888 23221921.433 10 0 59998 56700.00000 0 3792022.102 10172963.817 23090726.630 10 0 59998 57600.00000 0 1571696.524 11903187.001 22511520.191 10 0 59998 58500.00000 0 -438539.563 13731345.671 21495405.650 10 0 59998 59400.00000 0 -2199202.797 15599478.398 20061965.584 10 0 59998 60300.00000 0 -3682513.744 17444569.201 18238894.306 10 0 59998 61200.00000 0 -4873318.366 19201101.812 16061472.799 10 0 59998 62100.00000 0 -5769476.174 20803741.144 13571894.821 10 0 59998 63000.00000 0 -6381698.897 22190030.048 10818456.101 10 0 59998 63900.00000 0 -6732846.538 23302988.262 7854621.500 10 0 59998 64800.00000 0 -6856710.555 24093503.866 4737987.718 10 0 59998 65700.00000 0 -6796335.783 24522415.791 1529161.523 10 0 59998 66600.00000 0 -6601952.488 24562198.449 -1709424.344 10 0 59998 67500.00000 0 -6328606.842 24198176.287 -4914733.889 10 0 59998 68400.00000 0 -6033591.198 23429215.985 -8024364.403 10 0 59998 69300.00000 0 -5773784.273 22267865.972 -10977771.599 10 0 59998 70200.00000 0 -5603015.338 20739936.701 -13717458.226 10 0 59998 71100.00000 0 -5569565.452 18883538.915 -16190101.952 10 0 59998 72000.00000 0 -5713912.912 16747620.229 -18347599.627 10 0 59998 72900.00000 0 -6066819.405 14390061.688 -20148006.993 10 0 59998 73800.00000 0 -6647838.687 11875414.494 -21556355.330 10 0 59998 74700.00000 0 -7464311.368 9272372.045 -22545329.202 10 0 59998 75600.00000 0 -8510888.583 6651083.344 -23095792.556 10 0 59998 76500.00000 0 -9769604.792 4080420.022 -23197153.544 10 0 59998 77400.00000 0 -11210496.679 1625310.827 -22847561.751 10 0 59998 78300.00000 0 -12792742.072 -655745.890 -22053934.795 10 0 59998 79200.00000 0 -14466271.062 -2712889.031 -20831814.538 10 0 59998 80100.00000 0 -16173781.649 -4506730.269 -19205056.354 10 0 59998 81000.00000 0 -17853075.469 -6009743.401 -17205357.995 10 0 59998 81900.00000 0 -19439615.810 -7207151.434 -14871637.549 10 0 59998 82800.00000 0 -20869200.858 -8097276.384 -12249272.817 10 0 59998 83700.00000 0 -22080640.425 -8691339.200 -9389216.971 10 0 59998 84600.00000 0 -23018324.223 -9012720.211 -6347007.726 10 0 59998 85500.00000 0 -23634574.341 -9095712.901 -3181689.278 99